Regional Weather Roundup
Issued by NWS

Home | Current Version | Previous Version | Text Only | Print | Product List | Glossary On
Versions: 1 2 3 4 5 6 7 8 9 10 11 12 13 14 15 16 17 18 19 20 21 22 23 24 25 26 27 28 29 30 31 32 33 34 35 36 37 38 39 40 41 42 43 44 45 46 47 48 49 50
000
ASUS43 KMKX 280821
RWRWI

WISCONSIN REGIONAL WEATHER ROUNDUP
NATIONAL WEATHER SERVICE MILWAUKEE/SULLIVAN WI
300 AM CDT WED JUN 28 2017

NOTE: "FAIR" INDICATES FEW OR NO CLOUDS BELOW 12,000 FEET WITH NO
SIGNIFICANT WEATHER AND/OR OBSTRUCTIONS TO VISIBILITY.

WIZ001-002-006>008-014>016-023>028-280900-
NORTHWEST WISCONSIN

CITY           SKY/WX    TMP DP  RH WIND       PRES   REMARKS
SUPERIOR ARPT  NOT AVBL
ASHLAND        CLEAR     56  47  71 SE5       29.77F
HAYWARD        CLEAR     59  47  64 S8        29.78F
SIREN          PTCLDY    62  46  56 S8        29.75S
CUMBERLAND     MOCLDY    55  46  71 SE8       29.77F
RICE LAKE      MOCLDY    59  48  65 SE10      29.79F
CHETEK         MOCLDY    58  49  74 SE6       29.79F
LADYSMITH      MOCLDY    59  47  66 SE8       29.83F
EAU CLAIRE     CLOUDY    63  47  55 SE9       29.78F
MENOMONIE      CLOUDY    60  49  67 SE8       29.78S
NEW RICHMOND   PTCLDY    63  46  52 S10G21    29.74F
OSCEOLA        CLOUDY    64  47  54 SE7       29.76F
$$

WIZ003>005-009-010-017-018-280900-
NORTH CENTRAL WISCONSIN

CITY           SKY/WX    TMP DP  RH WIND       PRES   REMARKS
MANITOWISH WTR CLEAR     54  48  81 S7        29.84F
ARBOR VITAE    CLEAR     57  49  76 S5        29.85F
WOODRUFF       CLEAR     57  49  76 S5        29.85F
RHINELANDER    CLEAR     52  47  83 CALM      29.88F
EAGLE RIVER    CLEAR     52  45  77 CALM      29.87F
LAND O LAKES   CLOUDY    50  46  86 CALM      29.88F
PHILLIPS       CLOUDY    55  47  73 S8        29.82F
TOMAHAWK       NOT AVBL
MEDFORD        MOCLDY    53  47  80 SE9       29.86S
MERRILL        PTCLDY    48  47  95 CALM      29.88F
$$

WIZ029-030-035-036-043>047-280900-
CENTRAL WISCONSIN

CITY           SKY/WX    TMP DP  RH WIND       PRES   REMARKS
WAUSAU           N/A    N/A N/A N/A MISG      29.88F
MOSINEE        PTCLDY    52  46  82 SE5       29.90F
MARSHFIELD     MOCLDY    53  47  79 S8        29.87F
STEVENS POINT  PTCLDY    55  46  70 S6        29.90F
WAUPACA        PTCLDY    54  49  86 CALM      29.92S
WAUTOMA        PTCLDY    48  47  96 CALM      29.92F
WISC RAPIDS    PTCLDY    55  47  74 S3        29.90F
CAMP DOUGLAS   PTCLDY    53  47  83 E6        29.88F
$$

WIZ011>013-019>022-031-037>040-048>050-280900-
NORTHEAST WISCONSIN

CITY           SKY/WX    TMP DP  RH WIND       PRES   REMARKS
ANTIGO         CLEAR     51  47  87 S7        29.90F
SHAWANO        CLEAR     57  50  77 CALM      29.90F
OCONTO         CLEAR     55  51  84 CALM      29.92F
STURGEON BAY     N/A     59  49  69 S8        29.94F
GREEN BAY      CLEAR     57  53  86 S6        29.92F
MANITOWOC      CLEAR     58  49  72 S6        29.95F
APPLETON       CLEAR     55  45  67 S8        29.91F
CLINTONVILLE   CLEAR     50  46  87 CALM      29.91S
OSHKOSH        CLEAR     55  49  80 S7        29.93F
$$

WIZ032>034-041-042-053>061-280900-
SOUTHWEST WISCONSIN

CITY           SKY/WX    TMP DP  RH WIND       PRES   REMARKS
LA CROSSE      CLOUDY    68  49  50 SE8       29.83F
SPARTA         CLOUDY    62  48  60 S7        29.87S
VIROQUA        CLOUDY    61  49  64 S10       29.87F
BOSCOBEL       PTCLDY    66  48  52 S8G20     29.88F
PRAIRIE DU CHI CLOUDY    64  48  56 SE8       29.86F
PLATTEVILLE    MOCLDY    59  51  74 SE9       29.91F
$$

WIZ056-057-062-063-064-067-068-280900-
SOUTH CENTRAL WISCONSIN

CITY           SKY/WX    TMP DP  RH WIND       PRES   REMARKS
REEDSBURG      CLEAR     60  47  61 SE6       29.90S
BARABOO/DELLS  CLEAR     57  46  68 S5        29.90F
LONE ROCK      PTCLDY    60  49  66 E7        29.89F
MINERAL POINT  CLOUDY    59  48  67 SE10      29.92S
MADISON        CLEAR     60  48  64 S7        29.93F
MIDDLETON      CLEAR     61  47  60 S6        29.93F
WATERTOWN      NOT AVBL
MONROE         CLOUDY    61  46  59 S12       29.94F
JANESVILLE     CLEAR     59  46  63 S8        29.95F
$$

WIZ051-052-058>065-066-070>072-280900-
SOUTHEAST WISCONSIN

CITY           SKY/WX    TMP DP  RH WIND       PRES   REMARKS
MILWAUKEE      PTCLDY    57  49  74 S5        29.97F
WAUKESHA       CLEAR     54  45  71 S5        29.98F
MILWAUKEE/TIMM CLEAR     55  45  67 S6        29.98F
RACINE         CLEAR     58  45  62 S5        30.00F
KENOSHA        CLEAR     57  47  69 S6        29.99F
FOND DU LAC    CLEAR     57  47  69 S6        29.94F
SHEBOYGAN      CLEAR     52  50  93 S5        29.95F
WEST BEND      CLEAR     52  48  87 CALM      29.96F
JUNEAU         CLEAR     56  47  73 SE8       29.95F
$$

LSZ147-162-280900-
LAKE SUPERIOR

STATION/POSITION TIME  TEMP    WIND        PRES    WAVE
                       AIR SEA DIR/SP/G            HT/PER
                 (UTC) (F)     (DEG/KT/KT) (MB)    (FT/S)
W MID LAKE BUOY  0750   48 39  210/ 12/ 12 1009.0F   1
DEVILS ISLAND    0800   61     160/ 11/ 14 1007.2F
PORT WING        0700   63     160/  8/ 20 1008.1
SAXON HARBOR     0730   62     180/  4/  8 1008.5F
$$

LMZ867-665-643>646-280900-
LAKE MICHIGAN

STATION/POSITION TIME  TEMP    WIND        PRES    WAVE
                       AIR SEA DIR/SP/G            HT/PER
                 (UTC) (F)     (DEG/KT/KT) (MB)    (FT/S)
CHAMBERS ISLAND  0740   64     180/  4/  8 1013.2F
S GREEN BAY BUOY 0800   65     200/ 14/ 17 1013.0
N MID LAKE BUOY  0750   58 56  190/ 14/ 16 1014.2F   3/ 5
NORTHPORT PIER   0740   61     170/  4/  8 1013.5F
KEWAUNEE LAKESHO 0754   53     180/  5/  7 1013.4F
SHEBOYGAN LAKESH 0800   57     170/ 12/ 13 1013.8F
PORT WASHINGTON  0740   58     190/  3/  6 1015.6F
ATWATER BUOY     0709   60 56  170/  8/ 10 1015.8F
MILWAUKEE LAKESH 0800   62     210/  6/  7   N/A
S MID LAKE BUOY  0750   63 61  190/ 12/ 14 1016.3F   1/ 3
KENOSHA   LAKESH 0800   60     190/  5/  9 1015.6
$$

TC  - TEMPERATURE IN CELSIUS
VSB - VISIBILITY IN STATUTE MILES
WCI - WIND CHILL INDEX
HX  - HEAT INDEX





USA.gov is the U.S. government's official web portal to all federal, state and local government web resources and services.